| time (UTC) | temp C | wind direction | speed KPH | gust KPH | rain 1hr cm | rain 24hr cm | rain mn cm | humidity % | barometer mb |
| 20260506205930 | 21 | 16 | 6.4 | 9.7 | 0.00 | 0.00 | 0.00 | 72 | 1013.5 |
| 20260506205426 | 21 | 359 | 6.4 | 8.0 | 0.00 | 0.00 | 0.00 | 73 | 1013.5 |
| 20260506204923 | 21 | 23 | 6.4 | 9.7 | 0.00 | 0.00 | 0.00 | 74 | 1013.5 |
| 20260506204421 | 21 | 337 | 6.4 | 9.7 | 0.00 | 0.00 | 0.00 | 76 | 1013.5 |
| 20260506203918 | 21 | 338 | 6.4 | 8.0 | 0.00 | 0.00 | 0.00 | 75 | 1013.5 |
| 20260506203415 | 21 | 33 | 6.4 | 9.7 | 0.00 | 0.00 | 0.00 | 76 | 1013.5 |
| 20260506202911 | 21 | 5 | 8.0 | 11.3 | 0.00 | 0.00 | 0.00 | 75 | 1013.5 |
| 20260506202409 | 21 | 356 | 8.0 | 9.7 | 0.00 | 0.00 | 0.00 | 75 | 1013.5 |
| 20260506201905 | 21 | 26 | 8.0 | 12.9 | 0.00 | 0.00 | 0.00 | 74 | 1013.1 |
| 20260506201403 | 22 | 353 | 11.3 | 11.3 | 0.00 | 0.00 | 0.00 | 74 | 1012.7 |
| 20260506200859 | 22 | 18 | 12.9 | 14.5 | 0.00 | 0.00 | 0.00 | 73 | 1012.7 |
| 20260506200355 | 23 | 352 | 6.4 | 8.0 | 0.00 | 0.00 | 0.00 | 73 | 1012.7 |
| 20260506195852 | 23 | 42 | 4.8 | 4.8 | 0.00 | 0.00 | 0.00 | 74 | 1012.7 |
| 20260506195349 | 23 | 12 | 4.8 | 4.8 | 0.00 | 0.00 | 0.00 | 74 | 1012.7 |
| 20260506194846 | 23 | 315 | 6.4 | 8.0 | 0.00 | 0.00 | 0.00 | 73 | 1012.7 |
| 20260506194343 | 24 | 7 | 11.3 | 14.5 | 0.00 | 0.00 | 0.00 | 72 | 1012.7 |
| 20260506193840 | 25 | 70 | 6.4 | 9.7 | 0.00 | 0.00 | 0.00 | 71 | 1012.4 |
| 20260506193337 | 24 | 30 | 4.8 | 8.0 | 0.00 | 0.00 | 0.00 | 72 | 1012.4 |
| 20260506192833 | 25 | 31 | 11.3 | 14.5 | 0.00 | 0.00 | 0.00 | 71 | 1012.7 |
| 20260506192330 | 25 | 7 | 6.4 | 8.0 | 0.00 | 0.00 | 0.00 | 72 | 1012.7 |
| 20260506191827 | 25 | 341 | 4.8 | 8.0 | 0.00 | 0.00 | 0.00 | 73 | 1012.7 |
| 20260506191323 | 25 | 316 | 4.8 | 8.0 | 0.00 | 0.00 | 0.00 | 72 | 1013.1 |
| 20260506190820 | 25 | 354 | 6.4 | 8.0 | 0.00 | 0.00 | 0.00 | 72 | 1012.7 |
| 20260506190316 | 25 | 347 | 4.8 | 4.8 | 0.00 | 0.00 | 0.00 | 72 | 1013.1 |
| 20260506185814 | 25 | 14 | 6.4 | 8.0 | 0.00 | 0.00 | 0.00 | 71 | 1013.1 |
| 20260506185311 | 25 | 7 | 4.8 | 4.8 | 0.00 | 0.00 | 0.00 | 71 | 1012.7 |
| 20260506184808 | 25 | 311 | 3.2 | 3.2 | 0.00 | 0.00 | 0.00 | 72 | 1012.4 |
| 20260506184305 | 25 | 320 | 3.2 | 3.2 | 0.00 | 0.00 | 0.00 | 73 | 1012.7 |
| 20260506183802 | 25 | 136 | 6.4 | 8.0 | 0.00 | 0.00 | 0.00 | 71 | 1012.7 |
| 20260506183257 | 24 | 306 | 4.8 | 4.8 | 0.00 | 0.00 | 0.00 | 73 | 1012.7 |
| 20260506182754 | 23 | 351 | 1.6 | 4.8 | 0.00 | 0.00 | 0.00 | 73 | 1012.7 |
| 20260506182251 | 23 | 1 | 6.4 | 8.0 | 0.00 | 0.00 | 0.00 | 74 | 1012.7 |
| 20260506181749 | 23 | 315 | 3.2 | 3.2 | 0.00 | 0.00 | 0.00 | 74 | 1012.7 |
| 20260506181247 | 23 | 4 | 4.8 | 8.0 | 0.00 | 0.00 | 0.00 | 75 | 1012.7 |
| 20260506180744 | 22 | 57 | 0.0 | 0.0 | 0.00 | 0.00 | 0.00 | 75 | 1012.7 |
| 20260506180239 | 22 | 349 | 9.7 | 11.3 | 0.00 | 0.00 | 0.00 | 76 | 1013.1 |
| 20260506175736 | 22 | 115 | 4.8 | 4.8 | 0.00 | 0.00 | 0.00 | 77 | 1012.7 |
| 20260506175233 | 22 | 32 | 0.0 | 1.6 | 0.00 | 0.00 | 0.00 | 78 | 1012.7 |
| 20260506174731 | 21 | 42 | 3.2 | 4.8 | 0.00 | 0.00 | 0.00 | 77 | 1012.7 |
| 20260506174227 | 21 | 17 | 8.0 | 9.7 | 0.00 | 0.00 | 0.00 | 77 | 1013.1 |
| 20260506173725 | 21 | 12 | 9.7 | 11.3 | 0.00 | 0.00 | 0.00 | 76 | 1013.1 |
| 20260506173222 | 21 | 59 | 1.6 | 3.2 | 0.00 | 0.00 | 0.00 | 77 | 1013.1 |
| 20260506172719 | 21 | 348 | 8.0 | 11.3 | 0.00 | 0.00 | 0.00 | 77 | 1013.1 |
| 20260506172215 | 21 | 14 | 3.2 | 4.8 | 0.00 | 0.00 | 0.00 | 79 | 1013.1 |
| 20260506171713 | 20 | 44 | 1.6 | 1.6 | 0.00 | 0.00 | 0.00 | 80 | 1013.1 |
| 20260506171210 | 20 | 11 | 4.8 | 9.7 | 0.00 | 0.00 | 0.00 | 81 | 1013.5 |
| 20260506170708 | 20 | 338 | 8.0 | 9.7 | 0.00 | 0.00 | 0.00 | 80 | 1013.1 |
| 20260506170204 | 20 | 24 | 8.0 | 12.9 | 0.00 | 0.00 | 0.00 | 82 | 1013.5 |
| 20260506165702 | 19 | 341 | 11.3 | 12.9 | 0.00 | 0.00 | 0.00 | 83 | 1013.5 |
| 20260506165159 | 19 | 61 | 3.2 | 4.8 | 0.00 | 0.00 | 0.00 | 84 | 1013.5 |
| 20260506164656 | 18 | 38 | 4.8 | 4.8 | 0.00 | 0.00 | 0.00 | 86 | 1013.5 |
| 20260506164153 | 18 | 23 | 8.0 | 14.5 | 0.00 | 0.00 | 0.00 | 87 | 1014.1 |
| 20260506163650 | 18 | 348 | 8.0 | 11.3 | 0.00 | 0.00 | 0.00 | 88 | 1014.5 |
| 20260506163145 | 18 | 353 | 8.0 | 11.3 | 0.00 | 0.00 | 0.00 | 89 | 1014.1 |
| 20260506162641 | 18 | 350 | 6.4 | 8.0 | 0.00 | 0.00 | 0.00 | 89 | 1014.1 |
| 20260506162139 | 18 | 354 | 11.3 | 12.9 | 0.00 | 0.00 | 0.00 | 89 | 1014.5 |
| 20260506161636 | 18 | 18 | 16.1 | 20.9 | 0.00 | 0.00 | 0.00 | 89 | 1014.1 |
| 20260506161133 | 18 | 354 | 14.5 | 20.9 | 0.00 | 0.00 | 0.00 | 88 | 1014.5 |
| 20260506160630 | 20 | 6 | 12.9 | 14.5 | 0.00 | 0.00 | 0.00 | 88 | 1014.5 |
| 20260506160127 | 20 | 13 | 14.5 | 14.5 | 0.00 | 0.00 | 0.00 | 88 | 1014.1 |
| 20260506155626 | 20 | 66 | 6.4 | 8.0 | 0.00 | 0.00 | 0.00 | 87 | 1014.1 |
| 20260506155122 | 25 | 247 | 0.0 | 0.0 | 0.00 | 0.00 | 0.00 | 89 | 1013.1 |
| 20260506153219 | 25 | 6 | 0.0 | 1.6 | 0.00 | 0.00 | 0.00 | 89 | 1013.1 |
| 20260506152715 | 25 | 51 | 0.0 | 0.0 | 0.00 | 0.00 | 0.00 | 89 | 1012.7 |
| 20260506152213 | 25 | 254 | 0.0 | 0.0 | 0.00 | 0.00 | 0.00 | 89 | 1012.7 |
| 20260506151712 | 25 | 278 | 1.6 | 1.6 | 0.00 | 0.00 | 0.00 | 89 | 1012.7 |
| 20260506151208 | 25 | 313 | 0.0 | 0.0 | 0.00 | 0.00 | 0.00 | 90 | 1012.4 |
| 20260506150704 | 25 | 233 | 0.0 | 0.0 | 0.00 | 0.00 | 0.00 | 90 | 1012.7 |
| 20260506150201 | 25 | 177 | 3.2 | 3.2 | 0.00 | 0.00 | 0.00 | 89 | 1012.4 |
| 20260506145659 | 25 | 66 | 0.0 | 1.6 | 0.00 | 0.00 | 0.00 | 89 | 1012.4 |
| 20260506145155 | 25 | 123 | 3.2 | 3.2 | 0.00 | 0.00 | 0.00 | 89 | 1012.0 |
| 20260506144653 | 25 | 191 | 0.0 | 1.6 | 0.00 | 0.00 | 0.00 | 89 | 1012.0 |
| 20260506144149 | 25 | 291 | 0.0 | 1.6 | 0.00 | 0.00 | 0.00 | 90 | 1011.7 |
| 20260506143647 | 25 | 195 | 3.2 | 4.8 | 0.00 | 0.00 | 0.00 | 90 | 1011.7 |
| 20260506143145 | 24 | 166 | 1.6 | 1.6 | 0.00 | 0.00 | 0.00 | 90 | 1011.7 |
| 20260506142643 | 25 | 171 | 1.6 | 1.6 | 0.00 | 0.00 | 0.00 | 90 | 1011.3 |
| 20260506142141 | 25 | 203 | 0.0 | 0.0 | 0.00 | 0.00 | 0.00 | 90 | 1011.3 |
| 20260506141638 | 25 | 204 | 1.6 | 1.6 | 0.00 | 0.00 | 0.00 | 89 | 1011.7 |
| 20260506141136 | 24 | 211 | 0.0 | 0.0 | 0.00 | 0.00 | 0.00 | 89 | 1012.0 |
| 20260506140633 | 24 | 163 | 1.6 | 1.6 | 0.00 | 0.00 | 0.00 | 90 | 1012.0 |
| 20260506140130 | 24 | 185 | 1.6 | 1.6 | 0.00 | 0.00 | 0.00 | 90 | 1011.7 |
| 20260506135627 | 24 | 239 | 0.0 | 0.0 | 0.00 | 0.00 | 0.00 | 90 | 1011.3 |
| 20260506135124 | 24 | 243 | 0.0 | 1.6 | 0.00 | 0.00 | 0.00 | 90 | 1011.0 |
| 20260506134620 | 24 | 210 | 1.6 | 3.2 | 0.00 | 0.00 | 0.00 | 90 | 1011.0 |
| 20260506134116 | 24 | 158 | 4.8 | 4.8 | 0.00 | 0.00 | 0.00 | 90 | 1011.0 |
| 20260506133614 | 24 | 241 | 0.0 | 1.6 | 0.00 | 0.00 | 0.00 | 90 | 1011.0 |
| 20260506133110 | 24 | 338 | 1.6 | 1.6 | 0.00 | 0.00 | 0.00 | 90 | 1011.0 |
| 20260506132608 | 24 | 176 | 1.6 | 1.6 | 0.00 | 0.00 | 0.00 | 91 | 1010.7 |
| 20260506132105 | 24 | 244 | 0.0 | 0.0 | 0.00 | 0.00 | 0.00 | 92 | 1011.0 |
| 20260506131602 | 24 | 235 | 1.6 | 1.6 | 0.00 | 0.00 | 0.00 | 92 | 1011.0 |
| 20260506131058 | 23 | 234 | 0.0 | 0.0 | 0.00 | 0.00 | 0.00 | 92 | 1010.7 |
| 20260506130555 | 23 | 92 | 1.6 | 1.6 | 0.00 | 0.00 | 0.00 | 93 | 1010.7 |
| 20260506130053 | 23 | 203 | 1.6 | 1.6 | 0.00 | 0.00 | 0.00 | 93 | 1011.0 |
| 20260506125551 | 23 | 241 | 1.6 | 1.6 | 0.00 | 0.00 | 0.00 | 93 | 1011.0 |
| 20260506125048 | 23 | 185 | 1.6 | 1.6 | 0.00 | 0.00 | 0.00 | 93 | 1010.7 |
| 20260506124546 | 23 | 156 | 1.6 | 3.2 | 0.00 | 0.00 | 0.00 | 93 | 1010.7 |
| 20260506124044 | 23 | 250 | 0.0 | 0.0 | 0.00 | 0.00 | 0.00 | 93 | 1011.0 |
| 20260506123541 | 23 | 241 | 1.6 | 1.6 | 0.00 | 0.00 | 0.00 | 93 | 1010.7 |
| 20260506123039 | 23 | 184 | 1.6 | 1.6 | 0.00 | 0.00 | 0.00 | 93 | 1010.7 |
| 20260506122535 | 23 | 238 | 0.0 | 0.0 | 0.00 | 0.00 | 0.00 | 93 | 1010.7 |
| 20260506122034 | 23 | 244 | 0.0 | 0.0 | 0.00 | 0.00 | 0.00 | 93 | 1010.7 |
| 20260506121531 | 23 | 250 | 0.0 | 0.0 | 0.00 | 0.00 | 0.00 | 93 | 1010.7 |
| 20260506121027 | 23 | 241 | 0.0 | 0.0 | 0.00 | 0.00 | 0.00 | 93 | 1010.7 |
| 20260506120525 | 23 | 233 | 0.0 | 1.6 | 0.00 | 0.00 | 0.00 | 93 | 1010.7 |
| 20260506120022 | 23 | 207 | 1.6 | 1.6 | 0.00 | 0.00 | 0.00 | 93 | 1010.7 |
| 20260506115520 | 23 | 237 | 0.0 | 0.0 | 0.00 | 0.00 | 0.00 | 93 | 1010.7 |
| 20260506115018 | 23 | 238 | 0.0 | 0.0 | 0.00 | 0.00 | 0.00 | 93 | 1010.7 |
| 20260506114515 | 23 | 235 | 0.0 | 0.0 | 0.00 | 0.00 | 0.00 | 92 | 1010.7 |
| 20260506114014 | 23 | 252 | 0.0 | 0.0 | 0.00 | 0.00 | 0.00 | 92 | 1010.7 |
| 20260506113511 | 23 | 256 | 0.0 | 0.0 | 0.00 | 0.00 | 0.00 | 92 | 1010.7 |
| 20260506113009 | 23 | 245 | 0.0 | 0.0 | 0.00 | 0.00 | 0.00 | 92 | 1010.7 |
| 20260506112505 | 23 | 247 | 0.0 | 0.0 | 0.00 | 0.00 | 0.00 | 91 | 1010.7 |
| 20260506112002 | 23 | 247 | 0.0 | 0.0 | 0.00 | 0.00 | 0.00 | 91 | 1010.7 |
| 20260506111500 | 23 | 243 | 0.0 | 0.0 | 0.00 | 0.00 | 0.00 | 91 | 1010.7 |
| 20260506110957 | 23 | 231 | 0.0 | 0.0 | 0.00 | 0.00 | 0.00 | 91 | 1010.7 |
| 20260506110455 | 23 | 219 | 1.6 | 1.6 | 0.00 | 0.00 | 0.00 | 91 | 1010.3 |
| 20260506105951 | 23 | 226 | 0.0 | 0.0 | 0.00 | 0.00 | 0.00 | 91 | 1010.3 |
| 20260506105448 | 23 | 235 | 0.0 | 1.6 | 0.00 | 0.00 | 0.00 | 91 | 1010.3 |
| 20260506104945 | 23 | 141 | 3.2 | 3.2 | 0.00 | 0.00 | 0.00 | 91 | 1010.3 |
| 20260506104443 | 23 | 198 | 1.6 | 1.6 | 0.00 | 0.00 | 0.00 | 91 | 1010.3 |
| 20260506103941 | 23 | 236 | 0.0 | 1.6 | 0.00 | 0.00 | 0.00 | 91 | 1010.3 |
| 20260506103438 | 23 | 238 | 0.0 | 0.0 | 0.00 | 0.00 | 0.00 | 91 | 1010.3 |
| 20260506102935 | 23 | 239 | 0.0 | 0.0 | 0.00 | 0.00 | 0.00 | 91 | 1010.3 |
| 20260506102433 | 23 | 238 | 0.0 | 0.0 | 0.00 | 0.00 | 0.00 | 91 | 1010.3 |
| 20260506101930 | 23 | 192 | 1.6 | 1.6 | 0.00 | 0.00 | 0.00 | 91 | 1010.0 |
| 20260506101426 | 23 | 203 | 1.6 | 3.2 | 0.00 | 0.00 | 0.00 | 91 | 1010.3 |
| 20260506100924 | 23 | 240 | 0.0 | 0.0 | 0.00 | 0.00 | 0.00 | 91 | 1010.0 |
| 20260506100422 | 23 | 212 | 1.6 | 1.6 | 0.00 | 0.00 | 0.00 | 91 | 1010.0 |
| 20260506095919 | 23 | 198 | 8.0 | 9.7 | 0.00 | 0.00 | 0.00 | 91 | 1010.0 |
| 20260506095418 | 23 | 189 | 3.2 | 3.2 | 0.00 | 0.00 | 0.00 | 91 | 1010.0 |
| 20260506094914 | 23 | 220 | 4.8 | 4.8 | 0.00 | 0.00 | 0.00 | 91 | 1009.6 |
| 20260506094413 | 23 | 235 | 3.2 | 4.8 | 0.00 | 0.00 | 0.00 | 91 | 1009.6 |
| 20260506093910 | 23 | 202 | 3.2 | 3.2 | 0.00 | 0.00 | 0.00 | 91 | 1009.6 |
| 20260506093407 | 23 | 132 | 1.6 | 3.2 | 0.00 | 0.00 | 0.00 | 92 | 1009.6 |
| 20260506092905 | 23 | 216 | 3.2 | 3.2 | 0.00 | 0.00 | 0.00 | 91 | 1009.6 |
| 20260506092403 | 23 | 239 | 3.2 | 3.2 | 0.00 | 0.00 | 0.00 | 91 | 1009.6 |
| 20260506091859 | 23 | 222 | 1.6 | 3.2 | 0.00 | 0.00 | 0.00 | 91 | 1009.3 |
| 20260506091357 | 23 | 169 | 1.6 | 3.2 | 0.00 | 0.00 | 0.00 | 91 | 1009.0 |
| 20260506090854 | 23 | 210 | 3.2 | 4.8 | 0.00 | 0.00 | 0.00 | 91 | 1009.3 |
| 20260506090352 | 23 | 191 | 3.2 | 3.2 | 0.00 | 0.00 | 0.00 | 91 | 1009.3 |
| 20260506085848 | 23 | 107 | 4.8 | 8.0 | 0.00 | 0.00 | 0.00 | 91 | 1009.3 |
| 20260506085345 | 23 | 187 | 1.6 | 1.6 | 0.00 | 0.00 | 0.00 | 91 | 1009.3 |
| 20260506084841 | 24 | 192 | 3.2 | 3.2 | 0.00 | 0.00 | 0.00 | 91 | 1009.3 |
| 20260506084338 | 24 | 200 | 4.8 | 4.8 | 0.00 | 0.00 | 0.00 | 91 | 1009.3 |
| 20260506083834 | 24 | 199 | 3.2 | 3.2 | 0.00 | 0.00 | 0.00 | 91 | 1009.3 |
| 20260506083332 | 24 | 208 | 8.0 | 11.3 | 0.00 | 0.00 | 0.00 | 91 | 1009.3 |
| 20260506082829 | 24 | 202 | 3.2 | 4.8 | 0.00 | 0.00 | 0.00 | 91 | 1009.3 |
| 20260506082326 | 24 | 204 | 6.4 | 8.0 | 0.00 | 0.00 | 0.00 | 91 | 1009.6 |
| 20260506081822 | 24 | 198 | 4.8 | 4.8 | 0.00 | 0.00 | 0.00 | 91 | 1009.6 |
| 20260506081320 | 24 | 266 | 0.0 | 1.6 | 0.00 | 0.00 | 0.00 | 91 | 1009.3 |
| 20260506080817 | 24 | 103 | 3.2 | 3.2 | 0.00 | 0.00 | 0.00 | 91 | 1009.3 |
| 20260506080313 | 24 | 225 | 3.2 | 3.2 | 0.00 | 0.00 | 0.00 | 90 | 1009.3 |
| 20260506073258 | 24 | 146 | 3.2 | 3.2 | 0.00 | 0.00 | 0.00 | 90 | 1009.6 |
| 20260506072754 | 24 | 233 | 3.2 | 3.2 | 0.00 | 0.00 | 0.00 | 90 | 1009.6 |
| 20260506072252 | 24 | 194 | 4.8 | 8.0 | 0.00 | 0.00 | 0.00 | 91 | 1010.0 |
| 20260506071750 | 24 | 204 | 8.0 | 11.3 | 0.00 | 0.00 | 0.00 | 90 | 1010.0 |
| 20260506071248 | 24 | 218 | 8.0 | 9.7 | 0.00 | 0.00 | 0.00 | 90 | 1010.0 |
| 20260506070744 | 24 | 191 | 4.8 | 4.8 | 0.00 | 0.00 | 0.00 | 90 | 1010.0 |
| 20260506070241 | 24 | 224 | 0.0 | 1.6 | 0.00 | 0.00 | 0.00 | 90 | 1010.0 |
| 20260506062218 | 24 | 179 | 3.2 | 4.8 | 0.00 | 0.00 | 0.00 | 90 | 1010.0 |
| 20260506061714 | 24 | 195 | 6.4 | 8.0 | 0.00 | 0.00 | 0.00 | 90 | 1010.0 |
| 20260506061212 | 24 | 168 | 3.2 | 8.0 | 0.00 | 0.00 | 0.00 | 90 | 1010.0 |
| 20260506060711 | 24 | 157 | 3.2 | 3.2 | 0.00 | 0.00 | 0.00 | 90 | 1010.0 |
| 20260506060207 | 24 | 189 | 3.2 | 4.8 | 0.00 | 0.00 | 0.00 | 90 | 1010.0 |
| 20260506051139 | 25 | 252 | 4.8 | 8.0 | 0.00 | 0.00 | 0.00 | 88 | 1010.0 |
| 20260506050637 | 25 | 182 | 4.8 | 4.8 | 0.00 | 0.00 | 0.00 | 88 | 1010.0 |
| 20260506050134 | 25 | 209 | 3.2 | 3.2 | 0.00 | 0.00 | 0.00 | 88 | 1010.0 |
| 20260506045127 | 25 | 240 | 1.6 | 3.2 | 0.00 | 0.00 | 0.00 | 88 | 1010.0 |
| 20260506044625 | 25 | 179 | 6.4 | 11.3 | 0.00 | 0.00 | 0.00 | 88 | 1010.0 |
| 20260506044122 | 25 | 162 | 3.2 | 4.8 | 0.00 | 0.00 | 0.00 | 88 | 1010.0 |
| 20260506043619 | 25 | 187 | 1.6 | 3.2 | 0.00 | 0.00 | 0.00 | 88 | 1010.0 |
| 20260506043117 | 25 | 148 | 3.2 | 3.2 | 0.00 | 0.00 | 0.00 | 87 | 1010.0 |
| 20260506042616 | 25 | 241 | 4.8 | 8.0 | 0.00 | 0.00 | 0.00 | 87 | 1010.0 |
| 20260506042113 | 25 | 208 | 1.6 | 4.8 | 0.00 | 0.00 | 0.00 | 87 | 1010.0 |
| 20260506041612 | 25 | 189 | 3.2 | 8.0 | 0.00 | 0.00 | 0.00 | 87 | 1010.0 |
| 20260506041108 | 25 | 198 | 4.8 | 4.8 | 0.00 | 0.00 | 0.00 | 87 | 1010.0 |
| 20260506040606 | 25 | 181 | 1.6 | 3.2 | 0.00 | 0.00 | 0.00 | 87 | 1009.6 |
| 20260506035559 | 25 | 157 | 4.8 | 8.0 | 0.00 | 0.00 | 0.00 | 86 | 1009.6 |
| 20260506035056 | 25 | 200 | 4.8 | 4.8 | 0.00 | 0.00 | 0.00 | 86 | 1009.6 |
| 20260506034553 | 25 | 136 | 3.2 | 3.2 | 0.00 | 0.00 | 0.00 | 86 | 1009.6 |
| 20260506034050 | 25 | 224 | 1.6 | 3.2 | 0.00 | 0.00 | 0.00 | 86 | 1009.6 |
| 20260506033547 | 25 | 83 | 1.6 | 3.2 | 0.00 | 0.00 | 0.00 | 86 | 1009.6 |
| 20260506033044 | 25 | 201 | 3.2 | 4.8 | 0.00 | 0.00 | 0.00 | 86 | 1009.3 |
| 20260506032542 | 25 | 209 | 3.2 | 4.8 | 0.00 | 0.00 | 0.00 | 85 | 1009.0 |
| 20260506032038 | 25 | 236 | 4.8 | 4.8 | 0.00 | 0.00 | 0.00 | 84 | 1009.3 |
| 20260506031536 | 25 | 184 | 0.0 | 0.0 | 0.00 | 0.00 | 0.00 | 84 | 1009.0 |
| 20260506031033 | 25 | 229 | 4.8 | 8.0 | 0.00 | 0.00 | 0.00 | 84 | 1009.0 |
| 20260506030531 | 25 | 230 | 6.4 | 9.7 | 0.00 | 0.00 | 0.00 | 84 | 1009.0 |
| 20260506030028 | 25 | 169 | 3.2 | 4.8 | 0.00 | 0.00 | 0.00 | 85 | 1008.6 |
| 20260506025525 | 25 | 190 | 3.2 | 4.8 | 0.00 | 0.00 | 0.00 | 85 | 1008.6 |
| 20260506025021 | 25 | 201 | 9.7 | 12.9 | 0.00 | 0.00 | 0.00 | 85 | 1008.6 |
| 20260506024518 | 25 | 192 | 1.6 | 3.2 | 0.00 | 0.00 | 0.00 | 85 | 1008.6 |
| 20260506024014 | 25 | 219 | 1.6 | 3.2 | 0.00 | 0.00 | 0.00 | 85 | 1008.6 |
| 20260506023510 | 25 | 204 | 3.2 | 3.2 | 0.00 | 0.00 | 0.00 | 85 | 1008.3 |
| 20260506023008 | 25 | 171 | 0.0 | 1.6 | 0.00 | 0.00 | 0.00 | 84 | 1008.3 |
| 20260506022505 | 25 | 263 | 1.6 | 3.2 | 0.00 | 0.00 | 0.00 | 84 | 1008.3 |
| 20260506022003 | 25 | 207 | 1.6 | 1.6 | 0.00 | 0.00 | 0.00 | 83 | 1008.3 |
| 20260506021500 | 26 | 57 | 4.8 | 8.0 | 0.00 | 0.00 | 0.00 | 83 | 1008.0 |
| 20260506020957 | 26 | 128 | 6.4 | 9.7 | 0.00 | 0.00 | 0.00 | 83 | 1008.0 |
| 20260506020455 | 26 | 151 | 3.2 | 4.8 | 0.00 | 0.00 | 0.00 | 82 | 1007.6 |
| 20260506015951 | 26 | 193 | 1.6 | 4.8 | 0.00 | 0.00 | 0.00 | 81 | 1008.0 |
| 20260506015449 | 26 | 230 | 1.6 | 1.6 | 0.00 | 0.00 | 0.00 | 81 | 1008.0 |
| 20260506014946 | 26 | 222 | 1.6 | 3.2 | 0.00 | 0.00 | 0.00 | 81 | 1008.0 |
| 20260506014443 | 26 | 233 | 0.0 | 1.6 | 0.00 | 0.00 | 0.00 | 80 | 1008.0 |
| 20260506013939 | 26 | 234 | 0.0 | 1.6 | 0.00 | 0.00 | 0.00 | 79 | 1007.6 |
| 20260506013437 | 26 | 187 | 1.6 | 1.6 | 0.00 | 0.00 | 0.00 | 79 | 1007.6 |
| 20260506012933 | 26 | 244 | 0.0 | 1.6 | 0.00 | 0.00 | 0.00 | 79 | 1008.0 |
| 20260506012430 | 27 | 226 | 0.0 | 0.0 | 0.00 | 0.00 | 0.00 | 78 | 1008.0 |
| 20260506011927 | 27 | 222 | 0.0 | 1.6 | 0.00 | 0.00 | 0.00 | 77 | 1008.0 |
| 20260506011425 | 27 | 236 | 0.0 | 1.6 | 0.00 | 0.00 | 0.00 | 77 | 1008.0 |
| 20260506010921 | 27 | 228 | 1.6 | 1.6 | 0.00 | 0.00 | 0.00 | 76 | 1007.6 |
| 20260506010420 | 27 | 225 | 1.6 | 1.6 | 0.00 | 0.00 | 0.00 | 76 | 1007.6 |
| 20260506005916 | 27 | 195 | 0.0 | 1.6 | 0.00 | 0.00 | 0.00 | 75 | 1007.6 |
| 20260506005414 | 27 | 218 | 1.6 | 1.6 | 0.00 | 0.00 | 0.00 | 74 | 1007.6 |
| 20260506004909 | 27 | 240 | 0.0 | 1.6 | 0.00 | 0.00 | 0.00 | 74 | 1007.6 |
| 20260506004407 | 28 | 216 | 1.6 | 1.6 | 0.00 | 0.00 | 0.00 | 73 | 1007.6 |
| 20260506003903 | 28 | 246 | 1.6 | 1.6 | 0.00 | 0.00 | 0.00 | 73 | 1007.3 |
| 20260506003359 | 28 | 222 | 1.6 | 1.6 | 0.00 | 0.00 | 0.00 | 73 | 1007.3 |
| 20260506002856 | 28 | 212 | 0.0 | 1.6 | 0.00 | 0.00 | 0.00 | 73 | 1007.6 |
| 20260506002352 | 28 | 205 | 1.6 | 3.2 | 0.00 | 0.00 | 0.00 | 73 | 1007.6 |
| 20260506001848 | 28 | 222 | 1.6 | 1.6 | 0.00 | 0.00 | 0.00 | 73 | 1007.6 |
| 20260506001345 | 28 | 245 | 1.6 | 1.6 | 0.00 | 0.00 | 0.00 | 73 | 1007.3 |
| 20260506000842 | 28 | 228 | 0.0 | 1.6 | 0.00 | 0.00 | 0.00 | 72 | 1007.3 |
| 20260506000340 | 28 | 223 | 3.2 | 3.2 | 0.00 | 0.00 | 0.00 | 72 | 1007.6 |
| 20260505235836 | 28 | 240 | 0.0 | 1.6 | 0.00 | 0.00 | 0.00 | 72 | 1007.3 |
| 20260505235334 | 28 | 209 | 3.2 | 4.8 | 0.00 | 0.00 | 0.00 | 71 | 1007.6 |
| 20260505234830 | 28 | 198 | 4.8 | 9.7 | 0.00 | 0.00 | 0.00 | 72 | 1006.9 |
| 20260505234328 | 28 | 224 | 4.8 | 8.0 | 0.00 | 0.00 | 0.00 | 72 | 1007.3 |
| 20260505233825 | 28 | 230 | 3.2 | 3.2 | 0.00 | 0.00 | 0.00 | 72 | 1007.3 |
| 20260505233323 | 28 | 210 | 4.8 | 4.8 | 0.00 | 0.00 | 0.00 | 72 | 1007.3 |
| 20260505232820 | 28 | 200 | 1.6 | 3.2 | 0.00 | 0.00 | 0.00 | 71 | 1007.3 |
| 20260505232318 | 28 | 158 | 4.8 | 8.0 | 0.00 | 0.00 | 0.00 | 71 | 1007.3 |
| 20260505231814 | 28 | 207 | 1.6 | 3.2 | 0.00 | 0.00 | 0.00 | 71 | 1007.3 |
| 20260505231312 | 28 | 149 | 3.2 | 3.2 | 0.00 | 0.00 | 0.00 | 71 | 1007.3 |
| 20260505230810 | 28 | 143 | 8.0 | 11.3 | 0.00 | 0.00 | 0.00 | 70 | 1007.3 |
| 20260505230307 | 28 | 210 | 3.2 | 4.8 | 0.00 | 0.00 | 0.00 | 71 | 1007.3 |
| 20260505225803 | 28 | 239 | 3.2 | 4.8 | 0.00 | 0.00 | 0.00 | 71 | 1006.9 |
| 20260505225301 | 28 | 220 | 1.6 | 3.2 | 0.00 | 0.00 | 0.00 | 71 | 1006.9 |
| 20260505224755 | 28 | 175 | 4.8 | 8.0 | 0.00 | 0.00 | 0.00 | 70 | 1006.9 |
| 20260505224254 | 28 | 193 | 3.2 | 4.8 | 0.00 | 0.00 | 0.00 | 70 | 1006.9 |
| 20260505223751 | 28 | 199 | 4.8 | 8.0 | 0.00 | 0.00 | 0.00 | 69 | 1006.9 |
| 20260505223247 | 28 | 168 | 4.8 | 8.0 | 0.00 | 0.00 | 0.00 | 69 | 1006.9 |
| 20260505222743 | 29 | 200 | 4.8 | 8.0 | 0.00 | 0.00 | 0.00 | 69 | 1006.9 |
| 20260505222240 | 29 | 118 | 3.2 | 3.2 | 0.00 | 0.00 | 0.00 | 69 | 1006.9 |
| 20260505221737 | 28 | 96 | 4.8 | 8.0 | 0.00 | 0.00 | 0.00 | 69 | 1007.3 |
| 20260505221233 | 29 | 185 | 8.0 | 9.7 | 0.00 | 0.00 | 0.00 | 69 | 1007.3 |
| 20260505220730 | 28 | 238 | 4.8 | 8.0 | 0.00 | 0.00 | 0.00 | 69 | 1007.3 |
| 20260505220228 | 28 | 221 | 4.8 | 4.8 | 0.00 | 0.00 | 0.00 | 70 | 1007.3 |
| 20260505215726 | 28 | 206 | 1.6 | 3.2 | 0.00 | 0.00 | 0.00 | 70 | 1006.9 |
| 20260505215223 | 28 | 185 | 4.8 | 4.8 | 0.00 | 0.00 | 0.00 | 71 | 1007.3 |
| 20260505214721 | 29 | 160 | 4.8 | 9.7 | 0.00 | 0.00 | 0.00 | 70 | 1007.6 |
| 20260505214218 | 29 | 199 | 3.2 | 4.8 | 0.00 | 0.00 | 0.00 | 70 | 1007.6 |
| 20260505213715 | 28 | 229 | 4.8 | 9.7 | 0.00 | 0.00 | 0.00 | 70 | 1007.6 |
| 20260505213212 | 28 | 148 | 4.8 | 4.8 | 0.00 | 0.00 | 0.00 | 70 | 1007.6 |
| 20260505212708 | 29 | 182 | 11.3 | 12.9 | 0.00 | 0.00 | 0.00 | 69 | 1007.6 |
| 20260505212206 | 29 | 226 | 3.2 | 4.8 | 0.00 | 0.00 | 0.00 | 68 | 1007.6 |
| 20260505211702 | 29 | 209 | 4.8 | 8.0 | 0.00 | 0.00 | 0.00 | 69 | 1007.6 |
| 20260505211200 | 28 | 178 | 4.8 | 4.8 | 0.00 | 0.00 | 0.00 | 70 | 1008.0 |
| 20260505210656 | 28 | 193 | 4.8 | 8.0 | 0.00 | 0.00 | 0.00 | 71 | 1007.6 |